CCA8609 ZUNZ-ZGSZ

Flight info

Callsign CCA8609
Flight time 2h 50m
Altitude 35100
Route UGPIT J554 ELNUN W9 CZH B213 CTU W237 IDBOR B330 KWE W181 DUDIT A599 POU W7 SAREX
Aircraft B752/M-SDE2E3FGHIJ3J4J7RWXY/LB1

Departure

Time 2026-05-04 06:50
Airport Nyingchi Mainling Airport (ZUNZ)

Arrival

Time 2026-05-04 09:40
Airport Shenzhen Bao'an International Airport (ZGSZ)
Time Latitude Longitude Altitude Speed Heading
2026-05-04 06:25 29.30798 94.33610 9796 ft 0 kts 324°
2026-05-04 06:37 29.30797 94.33610 9797 ft 0 kts 324°
2026-05-04 06:37 29.30797 94.33611 9797 ft 0 kts 324°
2026-05-04 06:40 29.30792 94.33614 9797 ft 2 kts 324°
2026-05-04 06:40 29.30780 94.33624 9797 ft 2 kts 324°
2026-05-04 06:40 29.30772 94.33630 9797 ft 2 kts 316°
2026-05-04 06:41 29.30767 94.33645 9797 ft 2 kts 264°
2026-05-04 06:41 29.30770 94.33656 9797 ft 1 kts 234°
2026-05-04 06:41 29.30774 94.33661 9797 ft 0 kts 233°
2026-05-04 06:44 29.30624 94.33543 9795 ft 11 kts 148°
2026-05-04 06:44 29.30596 94.33545 9795 ft 5 kts 202°
2026-05-04 06:44 29.30561 94.33504 9794 ft 9 kts 236°
2026-05-04 06:45 29.30518 94.33431 9793 ft 12 kts 236°
2026-05-04 06:45 29.30459 94.33334 9792 ft 16 kts 233°
2026-05-04 06:45 29.30385 94.33219 9791 ft 19 kts 234°
2026-05-04 06:45 29.30296 94.33077 9789 ft 23 kts 234°
2026-05-04 06:46 29.30195 94.32916 9786 ft 26 kts 234°
2026-05-04 06:46 29.30082 94.32735 9784 ft 29 kts 235°
2026-05-04 06:46 29.29956 94.32533 9783 ft 32 kts 233°
2026-05-04 06:46 29.29822 94.32317 9781 ft 35 kts 234°
2026-05-04 06:48 29.29889 94.32749 9783 ft 41 kts 55°
2026-05-04 06:48 29.30189 94.33237 9789 ft 106 kts 53°
2026-05-04 06:49 29.30735 94.34113 9801 ft 162 kts 55°
2026-05-04 06:50 29.38787 94.44029 12216 ft 285 kts 31°
2026-05-04 06:51 29.40423 94.45183 13191 ft 270 kts 30°
2026-05-04 06:51 29.42140 94.45956 13687 ft 276 kts 11°
2026-05-04 06:51 29.44138 94.45983 13881 ft 294 kts 349°
2026-05-04 06:51 29.46061 94.45234 14497 ft 294 kts 333°
2026-05-04 06:52 29.47886 94.44134 14998 ft 297 kts 337°
2026-05-04 06:52 29.49872 94.43521 15493 ft 298 kts 356°
2026-05-04 06:52 29.51937 94.43586 15993 ft 300 kts 11°
2026-05-04 06:52 29.53971 94.44209 16445 ft 302 kts 15°
2026-05-04 06:53 29.56068 94.44459 16885 ft 306 kts 353°
2026-05-04 06:53 29.58114 94.43832 17318 ft 309 kts 333°
2026-05-04 06:53 29.59876 94.42451 17760 ft 311 kts 314°
2026-05-04 06:53 29.61201 94.40497 18171 ft 312 kts 298°
2026-05-04 06:54 29.62350 94.38354 18655 ft 312 kts 308°
2026-05-04 06:54 29.63914 94.36653 19069 ft 314 kts 324°
2026-05-04 06:54 29.65838 94.35446 19464 ft 317 kts 338°
2026-05-04 06:54 29.67880 94.34480 19884 ft 317 kts 330°
2026-05-04 06:55 29.69692 94.33106 20309 ft 317 kts 318°
2026-05-04 06:55 29.71397 94.31496 20746 ft 318 kts 324°
2026-05-04 06:55 29.73359 94.30324 21181 ft 322 kts 338°
2026-05-04 06:55 29.75558 94.29662 21598 ft 327 kts 350°
2026-05-04 06:56 29.77817 94.29527 22069 ft 331 kts
2026-05-04 06:57 29.89096 94.41788 24953 ft 357 kts 82°
2026-05-04 06:58 29.89401 94.44607 25360 ft 359 kts 82°
2026-05-04 06:58 29.89794 94.47474 25651 ft 364 kts 81°
2026-05-04 06:58 29.90227 94.50318 26154 ft 362 kts 78°
2026-05-04 06:58 29.90687 94.53195 26373 ft 369 kts 78°
2026-05-04 06:59 29.91158 94.56056 26875 ft 367 kts 78°
2026-05-04 06:59 29.91642 94.58962 27202 ft 371 kts 78°
2026-05-04 06:59 29.92133 94.61893 27521 ft 375 kts 78°
2026-05-04 06:59 29.92628 94.64838 27920 ft 375 kts 78°
2026-05-04 07:01 29.96176 94.86043 29869 ft 398 kts 79°
2026-05-04 07:01 29.96792 94.89154 30112 ft 399 kts 67°
2026-05-04 07:02 29.98025 94.92006 30281 ft 398 kts 51°
2026-05-04 07:02 29.99838 94.94355 30525 ft 393 kts 35°
2026-05-04 07:02 30.02109 94.96069 30768 ft 386 kts 18°
2026-05-04 07:02 30.04608 94.97092 30883 ft 387 kts 14°
2026-05-04 07:03 30.07113 94.98471 30925 ft 406 kts 29°
2026-05-04 07:03 30.09295 95.00580 30986 ft 423 kts 44°
2026-05-04 07:03 30.11073 95.03328 31023 ft 437 kts 56°
2026-05-04 07:03 30.12450 95.06538 31057 ft 451 kts 67°
2026-05-04 07:04 30.13354 95.10046 31094 ft 462 kts 77°
2026-05-04 07:04 30.13777 95.13748 31126 ft 473 kts 84°
2026-05-04 07:04 30.14716 95.21355 31150 ft 490 kts 78°
2026-05-04 07:05 30.16086 95.29176 31188 ft 506 kts 76°
2026-05-04 07:05 30.17614 95.37250 31275 ft 519 kts 75°
2026-05-04 07:06 30.19185 95.45373 31622 ft 522 kts 75°
2026-05-04 07:06 30.19982 95.49477 31864 ft 523 kts 75°
2026-05-04 07:06 30.20777 95.53568 32008 ft 525 kts 75°
2026-05-04 07:07 30.21569 95.57641 32265 ft 524 kts 75°
2026-05-04 07:08 30.27145 95.86484 33849 ft 525 kts 75°
2026-05-04 07:09 30.27937 95.90604 33973 ft 527 kts 75°
2026-05-04 07:09 30.28740 95.94791 34136 ft 528 kts 75°
2026-05-04 07:09 30.29534 95.98937 34327 ft 528 kts 75°
2026-05-04 07:09 30.30340 96.03051 34656 ft 525 kts 74°
2026-05-04 07:10 30.31174 96.07138 34707 ft 529 kts 74°
2026-05-04 07:10 30.32013 96.11288 35015 ft 527 kts 73°
2026-05-04 07:12 30.37827 96.40208 35865 ft 526 kts 73°
2026-05-04 07:12 30.39475 96.48469 35868 ft 529 kts 73°
2026-05-04 07:13 30.41129 96.56791 35890 ft 529 kts 73°
2026-05-04 07:13 30.42759 96.65022 35897 ft 527 kts 73°
2026-05-04 07:14 30.46825 96.85683 35868 ft 528 kts 73°
2026-05-04 07:15 30.48447 96.93976 35863 ft 527 kts 73°
2026-05-04 07:15 30.50060 97.02242 35849 ft 529 kts 73°
2026-05-04 07:16 30.51619 97.10583 35825 ft 530 kts 78°
2026-05-04 07:16 30.51766 97.19141 35825 ft 536 kts 93°
2026-05-04 07:17 30.51139 97.27728 35860 ft 537 kts 94°
2026-05-04 07:17 30.50445 97.36368 35869 ft 535 kts 94°
2026-05-04 07:18 30.49725 97.44977 35826 ft 539 kts 94°
2026-05-04 07:18 30.48997 97.53537 35845 ft 538 kts 94°
2026-05-04 07:19 30.48258 97.62127 35856 ft 538 kts 94°
2026-05-04 07:19 30.47506 97.70798 35845 ft 538 kts 94°
2026-05-04 07:20 30.46756 97.79372 35842 ft 538 kts 94°
2026-05-04 07:20 30.45998 97.87978 35850 ft 537 kts 94°
2026-05-04 07:22 30.42942 98.22444 35816 ft 539 kts 93°
2026-05-04 07:23 30.42275 98.31117 35847 ft 540 kts 92°
2026-05-04 07:23 30.41601 98.39778 35817 ft 540 kts 93°
2026-05-04 07:24 30.40924 98.48386 35811 ft 539 kts 93°
2026-05-04 07:24 30.40239 98.57008 35783 ft 540 kts 93°
2026-05-04 07:26 30.37440 98.91557 35781 ft 540 kts 93°
2026-05-04 07:27 30.36722 99.00249 35722 ft 540 kts 93°
2026-05-04 07:27 30.36004 99.08867 35764 ft 541 kts 94°
2026-05-04 07:28 30.35278 99.17474 35790 ft 539 kts 93°
2026-05-04 07:28 30.34546 99.26141 35820 ft 544 kts 93°
2026-05-04 07:29 30.33804 99.34808 35810 ft 541 kts 93°
2026-05-04 07:29 30.33058 99.43479 35809 ft 542 kts 92°
2026-05-04 07:30 30.32310 99.52119 35791 ft 541 kts 93°
2026-05-04 07:30 30.31554 99.60760 35832 ft 542 kts 93°
2026-05-04 07:31 30.30785 99.69486 35808 ft 543 kts 93°
2026-05-04 07:33 30.27741 100.04150 35854 ft 542 kts 92°
2026-05-04 07:33 30.27103 100.12823 35842 ft 544 kts 92°
2026-05-04 07:34 30.26452 100.21494 35800 ft 544 kts 91°
2026-05-04 07:34 30.25797 100.30194 35816 ft 542 kts 92°
2026-05-04 07:35 30.25137 100.38854 35780 ft 544 kts 91°
2026-05-04 07:35 30.24470 100.47537 35763 ft 542 kts 91°
2026-05-04 07:36 30.23798 100.56211 35715 ft 543 kts 92°
2026-05-04 07:38 30.21042 100.90932 35702 ft 544 kts 92°
2026-05-04 07:38 30.20337 100.99638 35721 ft 544 kts 92°
2026-05-04 07:39 30.19627 101.08305 35704 ft 546 kts 92°
2026-05-04 07:39 30.18905 101.17049 35684 ft 546 kts 92°
2026-05-04 07:40 30.18184 101.25703 35671 ft 545 kts 92°
2026-05-04 07:40 30.17458 101.34372 35668 ft 544 kts 92°
2026-05-04 07:41 30.16723 101.43057 35668 ft 544 kts 92°
2026-05-04 07:41 30.15986 101.51733 35680 ft 545 kts 92°
2026-05-04 07:42 30.15312 101.60438 35676 ft 545 kts 91°
2026-05-04 07:42 30.14888 101.69132 35641 ft 539 kts 82°
2026-05-04 07:43 30.16250 101.77510 35635 ft 524 kts 64°
2026-05-04 07:43 30.18887 101.85307 35638 ft 521 kts 61°
2026-05-04 07:44 30.21637 101.93014 35626 ft 520 kts 60°
2026-05-04 07:44 30.24415 102.00669 35605 ft 519 kts 60°
2026-05-04 07:45 30.27211 102.08342 35641 ft 518 kts 59°
2026-05-04 07:45 30.30006 102.16007 35646 ft 517 kts 60°
2026-05-04 07:46 30.32798 102.23679 35614 ft 517 kts 60°
2026-05-04 07:46 30.35586 102.31351 35591 ft 518 kts 60°
2026-05-04 07:47 30.38361 102.39011 35600 ft 515 kts 60°
2026-05-04 07:49 30.49421 102.69675 35524 ft 516 kts 60°
2026-05-04 07:49 30.52152 102.77277 35535 ft 514 kts 60°
2026-05-04 07:50 30.54904 102.84952 35512 ft 514 kts 60°
2026-05-04 07:50 30.57633 102.92583 35548 ft 515 kts 60°
2026-05-04 07:51 30.60368 103.00246 35541 ft 516 kts 60°
2026-05-04 07:51 30.63052 103.07985 35488 ft 517 kts 61°
2026-05-04 07:52 30.65707 103.15717 35495 ft 516 kts 61°
2026-05-04 07:52 30.67756 103.23819 35430 ft 530 kts 76°
2026-05-04 07:54 30.65515 103.58370 35154 ft 541 kts 92°
2026-05-04 07:55 30.64639 103.67030 35137 ft 541 kts 98°
2026-05-04 07:55 30.62554 103.75429 35123 ft 545 kts 106°
2026-05-04 07:56 30.60198 103.83796 35117 ft 545 kts 107°
2026-05-04 07:56 30.57821 103.92125 35124 ft 544 kts 107°
2026-05-04 07:57 30.55720 104.00477 35119 ft 543 kts 103°
2026-05-04 07:57 30.53583 104.08915 35128 ft 546 kts 111°
2026-05-04 07:58 30.49959 104.16600 35129 ft 544 kts 128°
2026-05-04 07:58 30.44754 104.22797 35138 ft 536 kts 147°
2026-05-04 07:59 30.38427 104.27111 35126 ft 525 kts 159°
2026-05-04 07:59 30.31837 104.30898 35123 ft 526 kts 160°
2026-05-04 08:00 30.25323 104.34587 35131 ft 524 kts 160°
2026-05-04 08:02 29.99060 104.49314 35102 ft 524 kts 160°
2026-05-04 08:02 29.92524 104.52963 35114 ft 524 kts 160°
2026-05-04 08:03 29.85923 104.56645 35096 ft 524 kts 160°
2026-05-04 08:03 29.79391 104.60283 35113 ft 522 kts 160°
2026-05-04 08:04 29.72847 104.63921 35102 ft 522 kts 160°
2026-05-04 08:04 29.66277 104.67569 35080 ft 521 kts 161°
2026-05-04 08:05 29.59736 104.71194 35097 ft 523 kts 161°
2026-05-04 08:05 29.53214 104.74805 35086 ft 521 kts 161°
2026-05-04 08:06 29.46642 104.78437 35080 ft 522 kts 161°
2026-05-04 08:06 29.40122 104.82037 35066 ft 521 kts 161°
2026-05-04 08:08 29.13750 104.95660 35075 ft 518 kts 163°
2026-05-04 08:11 28.84083 105.10583 35061 ft 516 kts 163°
2026-05-04 08:11 28.74296 105.15802 35076 ft 522 kts 158°
2026-05-04 08:12 28.67927 105.19691 35080 ft 522 kts 158°
2026-05-04 08:12 28.61500 105.23587 35087 ft 520 kts 158°
2026-05-04 08:13 28.55091 105.27461 35105 ft 522 kts 158°
2026-05-04 08:13 28.48659 105.31343 35131 ft 521 kts 159°
2026-05-04 08:14 28.42285 105.35184 35139 ft 520 kts 158°
2026-05-04 08:16 28.16632 105.50588 35228 ft 523 kts 159°
2026-05-04 08:16 28.10178 105.54451 35228 ft 521 kts 158°
2026-05-04 08:17 28.03555 105.57372 35202 ft 502 kts 175°
2026-05-04 08:17 27.96748 105.58649 35178 ft 496 kts 179°
2026-05-04 08:19 27.73219 105.65503 35175 ft 522 kts 158°
2026-05-04 08:19 27.70034 105.67420 35179 ft 518 kts 158°
2026-05-04 08:20 27.63575 105.70966 35184 ft 513 kts 163°
2026-05-04 08:20 27.57104 105.74311 35229 ft 513 kts 162°
2026-05-04 08:21 27.50643 105.77666 35231 ft 510 kts 162°
2026-05-04 08:21 27.44156 105.81033 35222 ft 512 kts 162°
2026-05-04 08:22 27.37726 105.84486 35232 ft 515 kts 160°
2026-05-04 08:24 27.12088 105.98611 35248 ft 511 kts 161°
2026-05-04 08:24 27.05840 106.02563 35262 ft 521 kts 148°
2026-05-04 08:25 27.00636 106.08338 35259 ft 534 kts 131°
2026-05-04 08:25 26.96136 106.14967 35245 ft 534 kts 130°
2026-05-04 08:27 26.78240 106.41335 35259 ft 532 kts 130°
2026-05-04 08:28 26.73779 106.47890 35253 ft 532 kts 130°
2026-05-04 08:28 26.69274 106.54483 35260 ft 531 kts 131°
2026-05-04 08:29 26.64778 106.61051 35266 ft 531 kts 131°
2026-05-04 08:31 26.46042 106.86154 35269 ft 523 kts 140°
2026-05-04 08:33 26.25473 107.08968 35247 ft 520 kts 140°
2026-05-04 08:35 26.04885 107.31530 35214 ft 517 kts 140°
2026-05-04 08:35 25.99743 107.37144 35205 ft 519 kts 140°
2026-05-04 08:37 25.81747 107.56756 35204 ft 516 kts 141°
2026-05-04 08:38 25.76631 107.62318 35208 ft 517 kts 140°
2026-05-04 08:38 25.71499 107.67893 35184 ft 515 kts 141°
2026-05-04 08:40 25.51044 107.90237 35170 ft 512 kts 144°
2026-05-04 08:41 25.45221 107.94491 35157 ft 494 kts 163°
2026-05-04 08:41 25.42030 107.95798 35170 ft 483 kts 173°
2026-05-04 08:41 25.38762 107.96575 35179 ft 477 kts 178°
2026-05-04 08:42 25.32218 107.97668 35167 ft 473 kts 180°
2026-05-04 08:42 25.25653 107.98592 35156 ft 473 kts 181°
2026-05-04 08:43 25.19094 107.99445 35158 ft 474 kts 181°
2026-05-04 08:43 25.12511 108.00272 35142 ft 474 kts 181°
2026-05-04 08:44 25.05975 108.01084 35135 ft 471 kts 182°
2026-05-04 08:46 24.79840 108.04292 35121 ft 471 kts 181°
2026-05-04 08:46 24.73288 108.05094 35135 ft 473 kts 181°
2026-05-04 08:47 24.66749 108.05894 35121 ft 471 kts 181°
2026-05-04 08:47 24.60227 108.06691 35133 ft 471 kts 181°
2026-05-04 08:48 24.53671 108.07488 35141 ft 473 kts 181°
2026-05-04 08:48 24.47151 108.08273 35121 ft 471 kts 181°
2026-05-04 08:49 24.40640 108.09054 35127 ft 470 kts 181°
2026-05-04 08:50 24.17780 108.11819 35121 ft 471 kts 181°
2026-05-04 08:51 24.11270 108.12614 35124 ft 471 kts 181°
2026-05-04 08:51 24.04710 108.13412 35119 ft 471 kts 181°
2026-05-04 08:52 23.98184 108.14247 35106 ft 473 kts 177°
2026-05-04 08:52 23.91839 108.16555 35121 ft 492 kts 158°
2026-05-04 08:54 23.79087 108.42571 35130 ft 528 kts 84°
2026-05-04 08:55 23.79644 108.50554 35119 ft 528 kts 89°
2026-05-04 08:55 23.79544 108.58508 35119 ft 528 kts 92°
2026-05-04 09:01 23.71205 109.40276 35081 ft 528 kts 104°
2026-05-04 09:01 23.69610 109.48090 35095 ft 527 kts 104°
2026-05-04 09:02 23.68015 109.55872 35097 ft 528 kts 104°
2026-05-04 09:02 23.66419 109.63643 35102 ft 528 kts 104°
2026-05-04 09:03 23.64813 109.71436 35099 ft 527 kts 105°
2026-05-04 09:03 23.63206 109.79219 35101 ft 528 kts 105°
2026-05-04 09:04 23.61589 109.87023 35111 ft 529 kts 105°
2026-05-04 09:04 23.59982 109.94762 35120 ft 526 kts 105°
2026-05-04 09:05 23.58358 110.02569 35130 ft 527 kts 105°
2026-05-04 09:05 23.56737 110.10332 35115 ft 528 kts 105°
2026-05-04 09:06 23.55114 110.18089 35127 ft 528 kts 105°
2026-05-04 09:08 23.48671 110.49175 35085 ft 528 kts 104°
2026-05-04 09:08 23.47088 110.56950 35094 ft 528 kts 104°
2026-05-04 09:09 23.45499 110.64725 35101 ft 528 kts 104°
2026-05-04 09:09 23.43898 110.72529 35095 ft 527 kts 105°
2026-05-04 09:10 23.42266 110.80280 35083 ft 524 kts 105°
2026-05-04 09:10 23.40642 110.87976 35106 ft 527 kts 105°
2026-05-04 09:11 23.39003 110.95722 35093 ft 524 kts 105°
2026-05-04 09:11 23.37363 111.03451 35107 ft 527 kts 105°
2026-05-04 09:12 23.35720 111.11178 35099 ft 526 kts 105°
2026-05-04 09:14 23.29408 111.42175 35099 ft 524 kts 105°
2026-05-04 09:14 23.27781 111.49855 35097 ft 525 kts 105°
2026-05-04 09:15 23.26141 111.57594 35102 ft 526 kts 105°
2026-05-04 09:15 23.24508 111.65314 35107 ft 525 kts 105°
2026-05-04 09:17 23.17263 111.99976 33388 ft 527 kts 105°
2026-05-04 09:18 23.16459 112.03867 32841 ft 527 kts 105°
2026-05-04 09:18 23.15660 112.07725 32322 ft 528 kts 105°
2026-05-04 09:18 23.14856 112.11610 31835 ft 528 kts 106°
2026-05-04 09:18 23.14049 112.15498 31319 ft 527 kts 106°
2026-05-04 09:19 23.13247 112.19365 30822 ft 526 kts 106°
2026-05-04 09:19 23.12440 112.23245 30323 ft 526 kts 106°
2026-05-04 09:19 23.11630 112.27137 29835 ft 528 kts 106°
2026-05-04 09:19 23.10826 112.30992 29340 ft 526 kts 106°
2026-05-04 09:20 23.10024 112.34840 28839 ft 521 kts 106°
2026-05-04 09:20 23.09236 112.38612 28347 ft 514 kts 106°
2026-05-04 09:20 23.08440 112.42413 27846 ft 510 kts 105°
2026-05-04 09:20 23.07660 112.46137 27368 ft 506 kts 105°
2026-05-04 09:21 23.07112 112.49894 26901 ft 506 kts 97°
2026-05-04 09:21 23.06831 112.53693 26420 ft 503 kts 96°
2026-05-04 09:21 23.06555 112.57396 25942 ft 498 kts 96°
2026-05-04 09:21 23.06283 112.61131 25450 ft 493 kts 96°
2026-05-04 09:22 23.06020 112.64785 24971 ft 487 kts 95°
2026-05-04 09:22 23.05754 112.68481 24462 ft 484 kts 95°
2026-05-04 09:22 23.05494 112.72090 23970 ft 481 kts 95°
2026-05-04 09:22 23.05233 112.75723 23482 ft 478 kts 95°
2026-05-04 09:23 23.04977 112.79275 23021 ft 474 kts 95°
2026-05-04 09:23 23.04721 112.82825 22660 ft 469 kts 94°
2026-05-04 09:23 23.04466 112.86337 22353 ft 467 kts 94°
2026-05-04 09:23 23.04219 112.89756 22122 ft 465 kts 94°
2026-05-04 09:25 23.02446 113.13892 20517 ft 456 kts 95°
2026-05-04 09:25 23.02023 113.17300 20288 ft 452 kts 103°
2026-05-04 09:26 23.01120 113.20495 20069 ft 449 kts 114°
2026-05-04 09:26 22.99797 113.23595 19847 ft 447 kts 118°
2026-05-04 09:26 22.98439 113.26581 19584 ft 447 kts 118°
2026-05-04 09:26 22.97030 113.29620 19239 ft 447 kts 119°
2026-05-04 09:27 22.95642 113.32579 18841 ft 443 kts 119°
2026-05-04 09:27 22.94248 113.35533 18391 ft 438 kts 120°
2026-05-04 09:27 22.92793 113.38432 17925 ft 430 kts 126°
2026-05-04 09:27 22.90969 113.40905 17481 ft 418 kts 140°
2026-05-04 09:28 22.88675 113.42802 17028 ft 405 kts 155°
2026-05-04 09:28 22.86207 113.44156 16564 ft 402 kts 159°
2026-05-04 09:28 22.83680 113.45468 15988 ft 400 kts 161°
2026-05-04 09:28 22.81074 113.46372 15517 ft 385 kts 173°
2026-05-04 09:29 22.78465 113.46796 15195 ft 373 kts 180°
2026-05-04 09:29 22.75850 113.46951 14850 ft 371 kts 184°
2026-05-04 09:29 22.73311 113.46976 14457 ft 362 kts 186°
2026-05-04 09:29 22.70813 113.46903 14106 ft 352 kts 187°
2026-05-04 09:30 22.68395 113.46787 13742 ft 344 kts 188°
2026-05-04 09:30 22.66031 113.46649 13389 ft 337 kts 188°
2026-05-04 09:30 22.63702 113.46496 13066 ft 330 kts 188°
2026-05-04 09:30 22.61437 113.46533 12652 ft 330 kts 175°
2026-05-04 09:31 22.59216 113.47296 12318 ft 333 kts 157°
2026-05-04 09:31 22.57346 113.48730 12007 ft 336 kts 139°
2026-05-04 09:31 22.55900 113.50760 11536 ft 339 kts 123°
2026-05-04 09:31 22.54782 113.52939 11020 ft 324 kts 122°
2026-05-04 09:32 22.53716 113.55022 10559 ft 311 kts 122°
2026-05-04 09:32 22.52706 113.57014 10073 ft 300 kts 121°
2026-05-04 09:34 22.47024 113.70147 6670 ft 260 kts 111°
2026-05-04 09:34 22.46429 113.71984 6182 ft 257 kts 110°
2026-05-04 09:34 22.45846 113.73786 5700 ft 254 kts 110°
2026-05-04 09:34 22.45266 113.75583 5217 ft 251 kts 110°
2026-05-04 09:35 22.44710 113.77342 4736 ft 247 kts 104°
2026-05-04 09:35 22.44667 113.79142 4298 ft 240 kts 73°
2026-05-04 09:35 22.45301 113.80783 3853 ft 236 kts 65°
2026-05-04 09:35 22.45998 113.82368 3380 ft 232 kts 65°
2026-05-04 09:37 22.53264 113.85098 1965 ft 170 kts 338°
2026-05-04 09:37 22.54316 113.84538 1771 ft 165 kts 338°
2026-05-04 09:38 22.55324 113.83993 1527 ft 155 kts 338°
2026-05-04 09:38 22.56249 113.83490 1302 ft 140 kts 338°
2026-05-04 09:38 22.57069 113.83044 1106 ft 128 kts 337°
2026-05-04 09:38 22.57883 113.82605 967 ft 132 kts 338°
2026-05-04 09:39 22.58721 113.82152 816 ft 137 kts 336°
2026-05-04 09:39 22.59573 113.81687 638 ft 135 kts 336°
2026-05-04 09:39 22.60403 113.81233 459 ft 132 kts 336°
2026-05-04 09:39 22.61208 113.80794 291 ft 129 kts 336°
2026-05-04 09:40 22.62011 113.80357 130 ft 128 kts 336°
2026-05-04 09:40 22.62804 113.79926 14 ft 124 kts 335°
2026-05-04 09:40 22.63454 113.79576 11 ft 74 kts 334°
2026-05-04 09:40 22.63757 113.79430 11 ft 29 kts 356°
2026-05-04 09:41 22.63955 113.79424 11 ft 19 kts
2026-05-04 09:42 22.63808 113.79703 11 ft 9 kts 152°
2026-05-04 09:43 22.63751 113.79737 11 ft 9 kts 150°
2026-05-04 09:43 22.63689 113.79774 11 ft 10 kts 151°
2026-05-04 09:43 22.63626 113.79810 11 ft 10 kts 152°
2026-05-04 09:43 22.63559 113.79848 11 ft 10 kts 153°
2026-05-04 09:44 22.63545 113.79881 11 ft 5 kts 81°
2026-05-04 09:44 22.63562 113.79925 11 ft 7 kts 65°
2026-05-04 09:44 22.63578 113.79961 11 ft 6 kts 64°
2026-05-04 09:46 22.63565 113.80261 11 ft 6 kts 113°
2026-05-04 09:46 22.63554 113.80288 11 ft 0 kts 113°